User: anonymous   Login
Location: Stonelick Lake State Park
(39.2170°N, 84.0850°W)
Time: 14:30:42
(UTC-04:00)
Language:

Abrixas rocket - Orbit

View from above orbital plane
View from above orbital plane
View from above satellite
View from above satellite

Ground track
Ground track

The orbit data is extracted from the following two-line orbital elements,

1 25723U 99022C   18140.88992190 +.00004449 +00000-0 +61133-4 0  9990
2 25723 048.4141 159.6491 0008587 233.0074 127.0088 15.59391357058798
Epoch (UTC): 20 May 2018 21:21:29
Eccentricity: 0.0008587
inclination: 48.4141°
perigee height: 383 km
apogee height: 395 km
right ascension of ascending node: 159.6491°
argument of perigee: 233.0074°
revolutions per day: 15.59391357
mean anomaly at epoch: 127.0088°
orbit number at epoch: 5879

The dashed part of the orbit path shows where the satellite is in the earth's shadow,  

DLR